Location: Ermatingen
(47.6706°N, 9.0857°E)
Time: 04:46:56
(UTC+00:00)

Cosmos 2263 Rocket - Pass Details

Date: 18 September 2020
Orbit: 822 x 850 km, 71.0° (Epoch: 29 October)

Event Time Altitude Azimuth Distance (km) Brightness Sun altitude
Rises 19:31:44 0° 238° (WSW) 3,350 5.7 -20.7°
Reaches altitude 10° 19:34:25 10° 248° (WSW) 2,423 5.1 -21.1°
Maximum altitude 19:39:20 31° 310° (NW) 1,410 4.0 -21.8°
Drops below altitude 10° 19:44:18 10° 13° (NNE) 2,448 4.8 -22.6°
Sets 19:47:02 0° 23° (NNE) 3,390 5.4 -23.0°
